Stations météo

Publicité
Cannes, France (7684): Température de l'air & dewpoint: 16.07.2019 18:00:00 - 22.07.2019 18:00:00 (CEST)Cannes, France (7684): Température de l'air 5cm: 16.07.2019 18:00:00 - 22.07.2019 18:00:00 (CEST)Cannes, France (7684): Vitesse du vent & gusts: 16.07.2019 18:00:00 - 22.07.2019 18:00:00 (CEST)Cannes, France (7684): Direction du vent: 16.07.2019 18:00:00 - 22.07.2019 18:00:00 (CEST)Cannes, France (7684): reduced air pressure: 16.07.2019 18:00:00 - 22.07.2019 18:00:00 (CEST)Cannes, France (7684): visibility: 16.07.2019 18:00:00 - 22.07.2019 18:00:00 (CEST)Cannes, France (7684): Quantités de précipitations: 16.07.2019 18:00:00 - 22.07.2019 18:00:00 (CEST)
Date & Time tt [°C] td [°C] tt 5cm [°C] ff [km/h] ff [knt] fx [km/h] fx [knt] dd ppp [hPa] vv [km] rr [mm]
22.07.2019 18:00:00 27,8 19,3 33,0 11 6 18 10 S 1020,3 38 0,0
22.07.2019 17:00:00 28,8 20,5 36,7 9 5 18 10 SSE 1020,6 40 0,0
22.07.2019 16:00:00 28,8 20,8 37,1 11 6 19 10 S 1021,0 37 0,0
22.07.2019 15:00:00 28,8 21,3 36,0 10 5 20 11 S 1021,3 40 0,0
22.07.2019 14:00:00 28,4 22,2 35,2 11 6 24 13 S 1021,8 39 0,0
22.07.2019 13:00:00 28,8 21,3 35,1 12 7 20 11 S 1022,1 41 0,0
22.07.2019 12:00:00 28,4 20,4 35,0 13 7 22 12 SSE 1022,2 20 0,0
22.07.2019 11:00:00 28,3 21,1 33,6 11 6 20 11 SE 1022,3 20 0,0
22.07.2019 10:00:00 27,3 20,9 33,7 11 6 18 10 SSE 1022,2 28 0,0
22.07.2019 09:00:00 26,0 20,6 29,1 5 3 9 5 N 1022,0 41 0,0
22.07.2019 08:00:00 23,2 19,6 22,3 5 3 14 7 N 1021,6 20 0,0
22.07.2019 07:00:00 21,0 18,9 19,8 6 3 13 7 N 1021,3 26 0,0
22.07.2019 06:00:00 20,7 18,8 19,9 6 3 13 7 N 1020,9 25 0,0
22.07.2019 05:00:00 20,9 18,8 20,1 6 3 13 7 N 1020,8 26 0,0
22.07.2019 04:00:00 21,3 19,0 20,6 7 4 13 7 N 1021,0 28 0,0
22.07.2019 03:00:00 21,9 19,3 21,1 6 3 11 6 N 1021,2 32 0,0
22.07.2019 02:00:00 22,2 19,6 21,3 6 3 13 7 N 1021,2 33 0,0
22.07.2019 01:00:00 22,8 19,8 21,8 6 3 9 5 N 1021,2 35 0,0
22.07.2019 00:00:00 23,5 20,2 22,3 4 2 8 4 NNE 1021,0 35 0,0
21.07.2019 23:00:00 23,9 20,2 22,8 4 2 6 4 N 1020,9 38 0,0
21.07.2019 22:00:00 25,2 20,5 23,4 4 2 8 5 ENE 1020,5 45 0,0
21.07.2019 21:00:00 25,3 20,3 24,5 6 3 14 8 SSE 1020,0 48 0,0
21.07.2019 20:00:00 25,8 20,1 26,2 8 4 17 9 SSE 1019,8 55 0,0
21.07.2019 19:00:00 27,1 20,0 31,4 10 6 20 11 SSE 1019,7 39 0,0
21.07.2019 18:00:00 27,8 20,4 32,8 11 6 23 12 SE 1019,7 41 0,0
21.07.2019 17:00:00 28,0 21,3 34,9 13 7 23 13 SSE 1019,9 33 0,0
21.07.2019 16:00:00 28,1 20,6 35,5 12 7 25 13 SSE 1020,0 32 0,0
21.07.2019 15:00:00 28,0 20,3 36,4 13 7 24 13 SSE 1020,3 20 0,0
21.07.2019 14:00:00 27,3 20,9 34,2 15 8 27 14 S 1020,4 20 0,0
21.07.2019 13:00:00 28,0 22,0 35,9 13 7 23 12 SSE 1020,4 37 0,0
21.07.2019 12:00:00 27,3 21,1 36,1 11 6 19 10 SSE 1020,4 44 0,0
21.07.2019 11:00:00 27,3 18,9 34,5 8 5 14 8 SSE 1020,2 20 0,0
21.07.2019 10:00:00 26,1 18,5 27,5 9 5 13 7 S 1020,4 48 0,0
21.07.2019 09:00:00 24,3 18,9 22,6 5 3 13 7 N 1020,1 34 0,0
21.07.2019 08:00:00 20,9 18,1 21,3 6 3 11 6 N 1020,2 22 0,0
21.07.2019 07:00:00 19,8 17,8 17,9 5 3 10 5 N 1020,1 17 0,0
21.07.2019 06:00:00 19,1 17,2 17,9 5 3 10 6 N 1019,7 17 0,0
21.07.2019 05:00:00 19,7 17,8 18,0 4 2 8 5 N 1019,5 20 0,0
21.07.2019 04:00:00 20,1 18,2 18,8 5 3 9 5 N 1019,6 18 0,0
21.07.2019 03:00:00 20,6 18,9 19,3 5 3 10 6 N 1019,9 17 0,0
21.07.2019 02:00:00 20,9 19,0 19,8 6 3 9 5 N 1019,9 17 0,0
21.07.2019 01:00:00 21,5 19,4 20,2 4 2 10 5 N 1019,8 19 0,0
21.07.2019 00:00:00 22,3 19,8 20,0 4 2 7 4 N 1019,6 23 0,0
20.07.2019 23:00:00 22,8 20,0 20,3 3 1 5 3 NNE 1019,5 25 0,0
20.07.2019 22:00:00 23,6 20,5 20,7 3 1 8 4 S 1019,3 32 0,0
20.07.2019 21:00:00 24,7 20,8 24,0 4 2 13 7 SSE 1018,7 37 0,0
20.07.2019 20:00:00 25,0 21,1 25,4 8 4 16 9 SSE 1018,5 35 0,0
20.07.2019 19:00:00 26,4 20,9 30,4 9 5 19 10 SSE 1018,5 34 0,0
20.07.2019 18:00:00 26,8 21,8 32,3 11 6 22 12 S 1018,5 38 0,0
20.07.2019 17:00:00 26,7 21,0 32,6 12 7 24 13 SSE 1018,4 20 0,0
20.07.2019 16:00:00 27,6 21,2 35,7 11 6 24 13 SSE 1018,9 27 0,0
20.07.2019 15:00:00 27,3 21,1 36,0 11 6 25 13 SSE 1019,2 26 0,0
20.07.2019 14:00:00 27,3 21,1 32,1 13 7 29 16 S 1019,2 27 0,0
20.07.2019 13:00:00 27,4 20,7 35,4 14 7 24 13 SSE 1019,2 28 0,0
20.07.2019 12:00:00 27,3 21,1 34,2 14 8 27 15 SSE 1018,9 29 0,0
20.07.2019 11:00:00 26,7 21,5 33,2 14 7 23 12 SSE 1018,8 20 0,0
20.07.2019 10:00:00 26,8 20,6 29,7 8 4 16 9 SSE 1018,5 22 0,0
20.07.2019 09:00:00 24,7 19,5 27,3 4 2 8 5 NNW 1018,2 29 0,0
20.07.2019 08:00:00 22,4 18,2 21,6 6 4 14 8 N 1017,7 20 0,0
20.07.2019 07:00:00 20,2 17,2 19,0 8 4 13 7 N 1017,4 19 0,0
20.07.2019 06:00:00 19,8 17,2 19,0 9 5 15 8 N 1017,2 25 0,0
20.07.2019 05:00:00 20,0 17,4 19,2 8 4 13 7 N 1017,0 25 0,0
20.07.2019 04:00:00 20,0 17,4 19,3 5 3 13 7 N 1016,9 27 0,0
20.07.2019 03:00:00 20,2 17,6 19,3 6 3 10 6 N 1016,8 20 0,0
20.07.2019 02:00:00 20,8 17,8 19,7 6 3 10 6 N 1016,7 29 0,0
20.07.2019 01:00:00 21,5 17,9 20,2 6 3 11 6 NNE 1016,9 33 0,0
20.07.2019 00:00:00 21,8 18,0 20,1 4 2 7 4 NNW 1016,7 33 0,0
19.07.2019 23:00:00 22,9 18,0 20,4 4 2 9 5 N 1016,6 34 0,0
19.07.2019 22:00:00 23,7 19,8 21,3 3 2 8 4 SSE 1016,2 33 0,0
19.07.2019 21:00:00 24,5 19,3 23,5 4 2 17 9 SSE 1015,8 43 0,0
19.07.2019 20:00:00 25,4 20,0 27,8 10 6 16 9 S 1015,7 40 0,0
19.07.2019 19:00:00 26,3 20,2 31,4 9 5 17 9 S 1015,6 48 0,0
19.07.2019 18:00:00 26,6 20,0 30,2 11 6 21 11 S 1015,8 43 0,0
19.07.2019 17:00:00 26,9 20,3 32,1 15 8 21 11 S 1015,9 20 0,0
19.07.2019 16:00:00 26,7 20,5 29,0 8 4 16 9 S 1016,1 25 0,0
19.07.2019 15:00:00 25,8 20,8 30,0 11 6 22 12 SSE 1016,6 20 0,0
19.07.2019 14:00:00 26,9 20,7 35,5 12 7 25 14 SSE 1016,5 22 0,0
19.07.2019 13:00:00 26,5 21,3 35,3 15 8 25 14 S 1016,3 20 0,0
19.07.2019 12:00:00 26,6 21,1 34,5 12 7 23 13 SSE 1016,3 25 0,0
19.07.2019 11:00:00 26,7 21,2 34,5 12 7 22 12 S 1016,1 20 0,0
19.07.2019 10:00:00 25,7 19,8 32,8 8 5 16 9 S 1015,8 20 0,0
19.07.2019 09:00:00 24,6 19,7 27,4 4 2 11 6 NNW 1015,6 20 0,0
19.07.2019 08:00:00 21,9 17,9 21,3 8 4 13 7 N 1015,3 27 0,0
19.07.2019 07:00:00 19,8 17,2 18,4 7 4 14 8 N 1014,9 20 0,0
19.07.2019 06:00:00 19,3 17,1 18,5 8 4 14 7 N 1014,7 20 0,0
19.07.2019 05:00:00 19,7 17,5 18,5 7 4 13 7 N 1014,7 20 0,0
19.07.2019 04:00:00 19,4 17,5 18,5 7 4 12 7 N 1014,6 19 0,0
19.07.2019 03:00:00 19,8 17,6 18,7 6 3 11 6 N 1014,6 20 0,0
19.07.2019 02:00:00 20,2 17,6 18,8 6 3 10 5 N 1014,3 22 0,0
19.07.2019 01:00:00 20,7 17,9 19,4 5 3 10 5 N 1014,1 24 0,0
19.07.2019 00:00:00 21,8 18,0 18,9 3 2 6 3 N 1013,8 29 0,0
18.07.2019 23:00:00 22,9 18,7 19,2 0 0 5 3 N 1013,8 30 0,0
18.07.2019 22:00:00 23,6 18,9 21,3 3 2 6 4 SSE 1013,3 19 0,0
18.07.2019 21:00:00 24,4 19,2 24,0 6 3 13 7 S 1012,7 35 0,0
18.07.2019 20:00:00 24,9 19,5 26,2 8 4 13 7 S 1012,5 33 0,0
18.07.2019 19:00:00 25,6 19,7 27,4 9 5 21 12 S 1012,1 37 0,0
18.07.2019 18:00:00 26,4 20,3 30,7 11 6 24 13 SSE 1012,2 25 0,0
18.07.2019 17:00:00 26,3 20,2 30,5 16 9 29 16 S 1012,3 20 0,0
18.07.2019 16:00:00 27,4 20,5 31,0 14 7 23 13 SE 1012,1 22 0,0
18.07.2019 15:00:00 27,2 20,8 34,2 17 9 29 15 SSE 1012,1 20 0,0
18.07.2019 14:00:00 27,2 19,8 31,0 16 8 29 16 SSE 1012,2 20 0,0
18.07.2019 13:00:00 27,5 20,1 34,0 18 10 27 15 SSE 1012,0 19 0,0
18.07.2019 12:00:00 27,2 19,0 29,9 13 7 23 13 SE 1012,0 20 0,0
18.07.2019 11:00:00 26,8 19,2 30,1 8 4 17 9 SE 1011,7 43 0,0
18.07.2019 10:00:00 26,6 19,5 30,1 3 2 13 7 NNE 1011,6 35 0,0
18.07.2019 09:00:00 25,2 19,3 28,2 5 3 11 6 NNE 1011,5 20 0,0
18.07.2019 08:00:00 22,4 18,4 21,2 5 3 11 6 NNE 1011,2 19 0,0
18.07.2019 07:00:00 20,2 17,4 18,8 5 3 11 6 NNE 1010,9 29 0,0
18.07.2019 06:00:00 20,0 17,6 18,9 5 3 10 6 N 1010,8 27 0,0
18.07.2019 05:00:00 20,4 18,2 19,9 6 3 9 5 N 1010,7 30 0,0
18.07.2019 04:00:00 20,5 18,3 19,5 4 2 11 6 NNE 1010,5 30 0,0
18.07.2019 03:00:00 20,0 18,3 19,0 6 4 10 6 N 1010,4 26 0,0
18.07.2019 02:00:00 20,4 18,5 19,6 6 3 11 6 N 1010,7 27 0,0
18.07.2019 01:00:00 21,0 18,8 19,6 5 3 9 5 N 1011,0 28 0,0
18.07.2019 00:00:00 21,9 19,5 20,5 3 2 7 4 N 1011,4 29 0,0
17.07.2019 23:00:00 22,9 19,7 21,3 4 2 7 4 NNW 1011,6 37 0,0
17.07.2019 22:00:00 24,1 20,2 22,9 3 2 10 5 SE 1011,7 47 0,0
17.07.2019 21:00:00 24,5 20,4 24,1 7 4 14 8 SE 1011,2 44 0,0
17.07.2019 20:00:00 25,3 19,4 27,1 8 5 16 9 SSE 1011,1 59 0,0
17.07.2019 19:00:00 25,9 19,5 28,5 10 5 20 11 S 1011,3 60 0,0
17.07.2019 18:00:00 26,2 20,1 31,8 12 6 21 11 S 1011,6 37 0,0
17.07.2019 17:00:00 26,7 20,1 33,7 11 6 26 14 SSE 1012,0 30 0,0
17.07.2019 16:00:00 26,9 19,8 33,9 16 9 28 15 SSE 1012,1 32 0,0
17.07.2019 15:00:00 27,5 16,5 35,3 14 7 26 14 SSE 1012,3 36 0,0
17.07.2019 14:00:00 28,0 16,3 33,3 13 7 24 13 SSE 1012,7 41 0,0
17.07.2019 13:00:00 26,8 19,2 33,1 14 8 25 14 SSE 1013,0 19 0,0
17.07.2019 12:00:00 26,7 19,6 33,3 14 7 27 15 SE 1013,2 49 0,0
17.07.2019 11:00:00 27,3 18,6 34,8 12 7 22 12 SE 1013,3 60 0,0
17.07.2019 10:00:00 27,3 15,0 33,7 4 2 14 8 NNE 1013,5 55 0,0
17.07.2019 09:00:00 25,0 14,5 27,4 4 2 11 6 NNW 1013,5 44 0,0
17.07.2019 08:00:00 20,8 14,2 20,8 7 4 14 8 N 1013,3 54 0,0
17.07.2019 07:00:00 18,1 13,6 16,4 6 3 16 9 N 1013,3 44 0,0
17.07.2019 06:00:00 17,8 13,5 16,2 6 3 13 7 N 1013,0 60 0,0
17.07.2019 05:00:00 17,7 13,6 16,2 6 3 10 6 N 1012,8 60 0,0
17.07.2019 04:00:00 18,1 13,4 16,2 6 3 11 6 N 1012,8 60 0,0
17.07.2019 03:00:00 18,6 13,5 17,0 6 3 11 6 N 1013,1 60 0,0
17.07.2019 02:00:00 19,0 13,6 17,6 6 3 13 7 N 1013,5 60 0,0
17.07.2019 01:00:00 20,0 13,9 18,3 6 4 10 6 N 1013,7 60 0,0
17.07.2019 00:00:00 20,7 14,1 18,8 6 3 9 5 N 1013,6 60 0,0
16.07.2019 23:00:00 22,0 14,4 19,6 4 2 9 5 N 1013,6 60 0,0
16.07.2019 22:00:00 23,4 14,1 18,7 4 2 6 4 N 1013,4 60 0,0
16.07.2019 21:00:00 25,7 15,4 23,9 5 3 14 8 SSE 1013,1 60 0,0
16.07.2019 20:00:00 27,7 13,2 29,1 10 6 19 11 S 1013,2 56 0,0
16.07.2019 19:00:00 28,7 12,6 33,4 13 7 22 12 S 1013,4 34 0,0
16.07.2019 18:00:00 28,3 14,2 33,3 17 9 28 15 S 1013,7 21 0,0

tt = Température de l'air
td = dewpoint
tt 5cm = Température de l'air 5cm
ff = Vitesse du vent
fx = gusts
dd = Direction du vent
ppp = reduced air pressure
vv = visibility
rr = Quantités de précipitations

stations d'obs. à proximité